Time,TemperatureF,DewpointF,PressureIn,WindDirection,WindDirectionDegrees,WindSpeedMPH,WindSpeedGustMPH,Humidity,HourlyPrecipIn,Conditions,Clouds,dailyrainin,SoftwareType,DateUTC
2013-03-01 00:04:00,25.0,-99.9,0.00,South,172,5.0,6.0,-999,0.00,,,-99.99,,2013-03-01 06:04:00,
2013-03-01 00:09:00,25.0,-99.9,0.00,South,171,6.0,6.0,-999,0.00,,,-99.99,,2013-03-01 06:09:00,
2013-03-01 00:14:00,25.0,-99.9,0.00,SSE,166,5.0,6.0,-999,0.00,,,-99.99,,2013-03-01 06:14:00,
2013-03-01 00:19:00,25.0,-99.9,0.00,SSE,147,5.0,5.0,-999,0.00,,,-99.99,,2013-03-01 06:19:00,
2013-03-01 00:24:00,25.0,-99.9,0.00,SE,140,5.0,5.0,-999,0.00,,,-99.99,,2013-03-01 06:24:00,
2013-03-01 00:29:00,24.0,-99.9,0.00,North,0,0.0,0.0,-999,0.00,,,-99.99,,2013-03-01 06:29:00,
2013-03-01 00:34:00,24.0,-99.9,0.00,North,0,0.0,0.0,-999,0.00,,,-99.99,,2013-03-01 06:34:00,
2013-03-01 00:39:00,24.0,-99.9,0.00,North,0,0.0,0.0,-999,0.00,,,-99.99,,2013-03-01 06:39:00,
2013-03-01 00:44:00,24.0,-99.9,0.00,North,0,0.0,0.0,-999,0.00,,,-99.99,,2013-03-01 06:44:00,
2013-03-01 00:49:00,24.0,-99.9,0.00,North,0,0.0,0.0,-999,0.00,,,-99.99,,2013-03-01 06:49:00,
2013-03-01 00:54:00,24.0,-99.9,0.00,North,0,0.0,0.0,-999,0.00,,,-99.99,,2013-03-01 06:54:00,
2013-03-01 00:59:00,24.0,-99.9,0.00,North,0,0.0,0.0,-999,0.00,,,-99.99,,2013-03-01 06:59:00,
2013-03-01 01:04:00,25.0,-99.9,0.00,North,0,0.0,0.0,-999,0.00,,,-99.99,,2013-03-01 07:04:00,
2013-03-01 01:09:00,25.0,-99.9,0.00,North,0,0.0,0.0,-999,0.00,,,-99.99,,2013-03-01 07:09:00,
2013-03-01 01:14:00,25.0,-99.9,0.00,North,0,0.0,0.0,-999,0.00,,,-99.99,,2013-03-01 07:14:00,
2013-03-01 01:19:00,25.0,-99.9,0.00,North,0,0.0,0.0,-999,0.00,,,-99.99,,2013-03-01 07:19:00,
2013-03-01 01:24:00,25.0,-99.9,0.00,North,0,0.0,0.0,-999,0.00,,,-99.99,,2013-03-01 07:24:00,
2013-03-01 01:29:00,24.0,-99.9,0.00,North,0,0.0,0.0,-999,0.00,,,-99.99,,2013-03-01 07:29:00,
2013-03-01 01:34:00,25.0,-99.9,0.00,North,0,0.0,0.0,-999,0.00,,,-99.99,,2013-03-01 07:34:00,
2013-03-01 01:39:00,25.0,-99.9,0.00,North,0,0.0,0.0,-999,0.00,,,-99.99,,2013-03-01 07:39:00,
2013-03-01 01:44:00,25.0,-99.9,0.00,North,0,0.0,0.0,-999,0.00,,,-99.99,,2013-03-01 07:44:00,
2013-03-01 01:49:00,26.0,-99.9,0.00,North,0,0.0,0.0,-999,0.00,,,-99.99,,2013-03-01 07:49:00,
2013-03-01 01:54:00,26.0,-99.9,0.00,North,0,0.0,0.0,-999,0.00,,,-99.99,,2013-03-01 07:54:00,
2013-03-01 01:59:00,26.0,-99.9,0.00,North,0,0.0,0.0,-999,0.00,,,-99.99,,2013-03-01 07:59:00,
2013-03-01 02:04:00,24.0,-99.9,0.00,NE,47,5.0,6.0,-999,0.00,,,-99.99,,2013-03-01 08:04:00,
2013-03-01 02:09:00,23.0,-99.9,0.00,NE,55,6.0,7.0,-999,0.00,,,-99.99,,2013-03-01 08:09:00,
2013-03-01 02:14:00,23.0,-99.9,0.00,NE,51,7.0,8.0,-999,0.00,,,-99.99,,2013-03-01 08:14:00,
2013-03-01 02:19:00,23.0,-99.9,0.00,NE,48,5.0,8.0,-999,0.00,,,-99.99,,2013-03-01 08:19:00,
2013-03-01 02:24:00,23.0,-99.9,0.00,North,0,0.0,0.0,-999,0.00,,,-99.99,,2013-03-01 08:24:00,
2013-03-01 02:29:00,23.0,-99.9,0.00,North,0,0.0,0.0,-999,0.00,,,-99.99,,2013-03-01 08:29:00,
2013-03-01 02:34:00,23.0,-99.9,0.00,North,0,0.0,0.0,-999,0.00,,,-99.99,,2013-03-01 08:34:00,
2013-03-01 02:39:00,23.0,-99.9,0.00,North,0,0.0,0.0,-999,0.00,,,-99.99,,2013-03-01 08:39:00,
2013-03-01 02:44:00,23.0,-99.9,0.00,North,0,0.0,0.0,-999,0.00,,,-99.99,,2013-03-01 08:44:00,
2013-03-01 02:49:00,23.0,-99.9,0.00,North,0,0.0,0.0,-999,0.00,,,-99.99,,2013-03-01 08:49:00,
2013-03-01 02:54:00,24.0,-99.9,0.00,North,0,0.0,0.0,-999,0.00,,,-99.99,,2013-03-01 08:54:00,
2013-03-01 02:59:00,24.0,-99.9,0.00,North,0,0.0,0.0,-999,0.00,,,-99.99,,2013-03-01 08:59:00,
2013-03-01 03:04:00,24.0,-99.9,0.00,North,0,0.0,0.0,-999,0.00,,,-99.99,,2013-03-01 09:04:00,
2013-03-01 03:09:00,25.0,-99.9,0.00,North,0,0.0,0.0,-999,0.00,,,-99.99,,2013-03-01 09:09:00,
2013-03-01 03:14:00,25.0,-99.9,0.00,North,0,0.0,0.0,-999,0.00,,,-99.99,,2013-03-01 09:14:00,
2013-03-01 03:19:00,25.0,-99.9,0.00,North,0,0.0,0.0,-999,0.00,,,-99.99,,2013-03-01 09:19:00,
2013-03-01 03:24:00,24.0,-99.9,0.00,North,0,0.0,0.0,-999,0.00,,,-99.99,,2013-03-01 09:24:00,
2013-03-01 03:29:00,24.0,-99.9,0.00,North,355,6.0,7.0,-999,0.00,,,-99.99,,2013-03-01 09:29:00,
2013-03-01 03:35:00,22.0,-99.9,0.00,North,350,5.0,6.0,-999,0.00,,,-99.99,,2013-03-01 09:35:00,
2013-03-01 03:44:00,22.0,-99.9,0.00,North,351,5.0,5.0,-999,0.00,,,-99.99,,2013-03-01 09:44:00,
2013-03-01 03:49:00,22.0,-99.9,0.00,North,353,5.0,5.0,-999,0.00,,,-99.99,,2013-03-01 09:49:00,
2013-03-01 03:54:00,22.0,-99.9,0.00,NNE,17,4.0,4.0,-999,0.00,,,-99.99,,2013-03-01 09:54:00,
2013-03-01 03:59:00,22.0,-99.9,0.00,North,1,4.0,4.0,-999,0.00,,,-99.99,,2013-03-01 09:59:00,
2013-03-01 04:04:00,22.0,-99.9,0.00,North,0,0.0,0.0,-999,0.00,,,-99.99,,2013-03-01 10:04:00,
2013-03-01 04:09:00,22.0,-99.9,0.00,North,0,0.0,0.0,-999,0.00,,,-99.99,,2013-03-01 10:09:00,
2013-03-01 04:19:00,22.0,-99.9,0.00,North,0,0.0,0.0,-999,0.00,,,-99.99,,2013-03-01 10:19:00,
2013-03-01 04:24:00,22.0,-99.9,0.00,North,0,0.0,0.0,-999,0.00,,,-99.99,,2013-03-01 10:24:00,
2013-03-01 04:29:00,22.0,-99.9,0.00,North,0,0.0,0.0,-999,0.00,,,-99.99,,2013-03-01 10:29:00,
2013-03-01 04:34:00,22.0,-99.9,0.00,North,0,0.0,0.0,-999,0.00,,,-99.99,,2013-03-01 10:34:00,
2013-03-01 04:39:00,22.0,-99.9,0.00,North,0,0.0,0.0,-999,0.00,,,-99.99,,2013-03-01 10:39:00,
2013-03-01 04:44:00,22.0,-99.9,0.00,North,0,0.0,0.0,-999,0.00,,,-99.99,,2013-03-01 10:44:00,
2013-03-01 04:49:00,22.0,-99.9,0.00,North,0,0.0,0.0,-999,0.00,,,-99.99,,2013-03-01 10:49:00,
2013-03-01 04:54:00,22.0,-99.9,0.00,North,0,0.0,0.0,-999,0.00,,,-99.99,,2013-03-01 10:54:00,
2013-03-01 04:59:00,21.0,-99.9,0.00,NW,314,5.0,5.0,-999,0.00,,,-99.99,,2013-03-01 10:59:00,
2013-03-01 05:04:00,22.0,-99.9,0.00,NW,313,4.0,5.0,-999,0.00,,,-99.99,,2013-03-01 11:04:00,
2013-03-01 05:10:00,21.0,-99.9,0.00,NW,306,4.0,5.0,-999,0.00,,,-99.99,,2013-03-01 11:10:00,
2013-03-01 05:19:00,22.0,-99.9,0.00,WNW,288,4.0,4.0,-999,0.00,,,-99.99,,2013-03-01 11:19:00,
2013-03-01 05:24:00,21.0,-99.9,0.00,WNW,303,4.0,5.0,-999,0.00,,,-99.99,,2013-03-01 11:24:00,
2013-03-01 05:29:00,21.0,-99.9,0.00,WNW,302,5.0,5.0,-999,0.00,,,-99.99,,2013-03-01 11:29:00,
2013-03-01 05:34:00,21.0,-99.9,0.00,WNW,288,5.0,5.0,-999,0.00,,,-99.99,,2013-03-01 11:34:00,
2013-03-01 05:39:00,21.0,-99.9,0.00,WNW,299,5.0,5.0,-999,0.00,,,-99.99,,2013-03-01 11:39:00,
2013-03-01 05:44:00,21.0,-99.9,0.00,WNW,293,5.0,5.0,-999,0.00,,,-99.99,,2013-03-01 11:44:00,
2013-03-01 05:49:00,21.0,-99.9,0.00,NW,312,5.0,5.0,-999,0.00,,,-99.99,,2013-03-01 11:49:00,
2013-03-01 05:54:00,21.0,-99.9,0.00,NW,323,5.0,6.0,-999,0.00,,,-99.99,,2013-03-01 11:54:00,
2013-03-01 05:59:00,21.0,-99.9,0.00,NW,309,4.0,5.0,-999,0.00,,,-99.99,,2013-03-01 11:59:00,
2013-03-01 06:04:00,20.0,-99.9,0.00,NW,309,6.0,6.0,-999,0.00,,,-99.99,,2013-03-01 12:04:00,
2013-03-01 06:09:00,20.0,-99.9,0.00,WNW,303,5.0,6.0,-999,0.00,,,-99.99,,2013-03-01 12:09:00,
2013-03-01 06:14:00,20.0,-99.9,0.00,NW,307,6.0,6.0,-999,0.00,,,-99.99,,2013-03-01 12:14:00,
2013-03-01 06:19:00,20.0,-99.9,0.00,WNW,302,6.0,6.0,-999,0.00,,,-99.99,,2013-03-01 12:19:00,
2013-03-01 06:24:00,20.0,-99.9,0.00,WNW,295,6.0,7.0,-999,0.00,,,-99.99,,2013-03-01 12:24:00,
2013-03-01 06:29:00,20.0,-99.9,0.00,WNW,288,6.0,6.0,-999,0.00,,,-99.99,,2013-03-01 12:29:00,
2013-03-01 06:34:00,20.0,-99.9,0.00,WNW,290,6.0,6.0,-999,0.00,,,-99.99,,2013-03-01 12:34:00,
2013-03-01 06:39:00,20.0,-99.9,0.00,NW,310,5.0,6.0,-999,0.00,,,-99.99,,2013-03-01 12:39:00,
2013-03-01 06:44:00,20.0,-99.9,0.00,NW,307,6.0,6.0,-999,0.00,,,-99.99,,2013-03-01 12:44:00,
2013-03-01 06:49:00,19.0,-99.9,0.00,WNW,282,5.0,5.0,-999,0.00,,,-99.99,,2013-03-01 12:49:00,
2013-03-01 06:54:00,20.0,-99.9,0.00,WNW,286,5.0,5.0,-999,0.00,,,-99.99,,2013-03-01 12:54:00,
2013-03-01 06:59:00,19.0,-99.9,0.00,WNW,288,5.0,5.0,-999,0.00,,,-99.99,,2013-03-01 12:59:00,
2013-03-01 07:04:00,20.0,-99.9,0.00,NW,306,5.0,5.0,-999,0.00,,,-99.99,,2013-03-01 13:04:00,
2013-03-01 07:09:00,20.0,-99.9,0.00,WNW,293,5.0,5.0,-999,0.00,,,-99.99,,2013-03-01 13:09:00,
2013-03-01 07:14:00,20.0,-99.9,0.00,WNW,303,5.0,5.0,-999,0.00,,,-99.99,,2013-03-01 13:14:00,
2013-03-01 07:19:00,20.0,-99.9,0.00,WNW,292,4.0,5.0,-999,0.00,,,-99.99,,2013-03-01 13:19:00,
2013-03-01 07:24:00,20.0,-99.9,0.00,WNW,283,5.0,6.0,-999,0.00,,,-99.99,,2013-03-01 13:24:00,
2013-03-01 07:29:00,20.0,-99.9,0.00,WNW,286,5.0,5.0,-999,0.00,,,-99.99,,2013-03-01 13:29:00,
2013-03-01 07:34:00,20.0,-99.9,0.00,West,259,1.0,3.0,-999,0.00,,,-99.99,,2013-03-01 13:34:00,
2013-03-01 07:39:00,20.0,-99.9,0.00,North,0,0.0,0.0,-999,0.00,,,-99.99,,2013-03-01 13:39:00,
2013-03-01 07:44:00,20.0,-99.9,0.00,North,0,0.0,0.0,-999,0.00,,,-99.99,,2013-03-01 13:44:00,
2013-03-01 07:49:00,20.0,-99.9,0.00,West,266,6.0,7.0,-999,0.00,,,-99.99,,2013-03-01 13:49:00,
2013-03-01 07:54:00,20.0,-99.9,0.00,WSW,258,6.0,7.0,-999,0.00,,,-99.99,,2013-03-01 13:54:00,
2013-03-01 07:59:00,21.0,-99.9,0.00,West,264,6.0,6.0,-999,0.00,,,-99.99,,2013-03-01 13:59:00,
2013-03-01 08:04:00,21.0,-99.9,0.00,West,279,5.0,6.0,-999,0.00,,,-99.99,,2013-03-01 14:04:00,
2013-03-01 08:09:00,21.0,-99.9,0.00,WNW,285,7.0,8.0,-999,0.00,,,-99.99,,2013-03-01 14:09:00,
2013-03-01 08:19:00,21.0,-99.9,0.00,WNW,285,6.0,6.0,-999,0.00,,,-99.99,,2013-03-01 14:19:00,
2013-03-01 08:24:00,22.0,-99.9,0.00,WNW,289,5.0,6.0,-999,0.00,,,-99.99,,2013-03-01 14:24:00,
2013-03-01 08:29:00,22.0,-99.9,0.00,West,276,4.0,5.0,-999,0.00,,,-99.99,,2013-03-01 14:29:00,
2013-03-01 08:34:00,23.0,-99.9,0.00,West,264,5.0,5.0,-999,0.00,,,-99.99,,2013-03-01 14:34:00,
2013-03-01 08:39:00,23.0,-99.9,0.00,West,268,5.0,6.0,-999,0.00,,,-99.99,,2013-03-01 14:39:00,
2013-03-01 08:44:00,23.0,-99.9,0.00,West,269,5.0,5.0,-999,0.00,,,-99.99,,2013-03-01 14:44:00,
2013-03-01 08:49:00,23.0,-99.9,0.00,West,265,5.0,6.0,-999,0.00,,,-99.99,,2013-03-01 14:49:00,
2013-03-01 08:54:00,24.0,-99.9,0.00,West,281,5.0,6.0,-999,0.00,,,-99.99,,2013-03-01 14:54:00,
2013-03-01 08:59:00,24.0,-99.9,0.00,West,266,5.0,6.0,-999,0.00,,,-99.99,,2013-03-01 14:59:00,
2013-03-01 09:04:00,24.0,-99.9,0.00,WNW,282,6.0,7.0,-999,0.00,,,-99.99,,2013-03-01 15:04:00,
2013-03-01 09:09:00,24.0,-99.9,0.00,West,265,6.0,7.0,-999,0.00,,,-99.99,,2013-03-01 15:09:00,
2013-03-01 09:19:00,25.0,-99.9,0.00,WNW,282,7.0,7.0,-999,0.00,,,-99.99,,2013-03-01 15:19:00,
2013-03-01 09:24:00,26.0,-99.9,0.00,WNW,303,7.0,8.0,-999,0.00,,,-99.99,,2013-03-01 15:24:00,
2013-03-01 09:29:00,26.0,-99.9,0.00,WNW,299,7.0,8.0,-999,0.00,,,-99.99,,2013-03-01 15:29:00,
2013-03-01 09:34:00,26.0,-99.9,0.00,WNW,300,6.0,7.0,-999,0.00,,,-99.99,,2013-03-01 15:34:00,
2013-03-01 09:39:00,26.0,-99.9,0.00,WNW,298,9.0,10.0,-999,0.00,,,-99.99,,2013-03-01 15:39:00,
2013-03-01 09:44:00,26.0,-99.9,0.00,WNW,296,8.0,10.0,-999,0.00,,,-99.99,,2013-03-01 15:44:00,
2013-03-01 09:49:00,27.0,-99.9,0.00,WNW,299,9.0,10.0,-999,0.00,,,-99.99,,2013-03-01 15:49:00,
2013-03-01 09:54:00,27.0,-99.9,0.00,NW,319,8.0,9.0,-999,0.00,,,-99.99,,2013-03-01 15:54:00,
2013-03-01 09:59:00,28.0,-99.9,0.00,NW,310,8.0,9.0,-999,0.00,,,-99.99,,2013-03-01 15:59:00,
2013-03-01 10:04:00,28.0,-99.9,0.00,NW,313,8.0,9.0,-999,0.00,,,-99.99,,2013-03-01 16:04:00,
2013-03-01 10:09:00,29.0,-99.9,0.00,WNW,302,7.0,8.0,-999,0.00,,,-99.99,,2013-03-01 16:09:00,
2013-03-01 10:19:00,30.0,-99.9,0.00,WNW,303,8.0,10.0,-999,0.00,,,-99.99,,2013-03-01 16:19:00,
2013-03-01 10:24:00,30.0,-99.9,0.00,NW,310,9.0,10.0,-999,0.00,,,-99.99,,2013-03-01 16:24:00,
2013-03-01 10:29:00,30.0,-99.9,0.00,NW,319,8.0,9.0,-999,0.00,,,-99.99,,2013-03-01 16:29:00,
2013-03-01 10:34:00,30.0,-99.9,0.00,NW,317,8.0,9.0,-999,0.00,,,-99.99,,2013-03-01 16:34:00,
2013-03-01 10:39:00,31.0,-99.9,0.00,NW,323,7.0,8.0,-999,0.00,,,-99.99,,2013-03-01 16:39:00,
2013-03-01 10:44:00,32.0,-99.9,0.00,NW,320,9.0,10.0,-999,0.00,,,-99.99,,2013-03-01 16:44:00,
2013-03-01 10:49:00,32.0,-99.9,0.00,NNW,327,9.0,10.0,-999,0.00,,,-99.99,,2013-03-01 16:49:00,
2013-03-01 10:54:00,32.0,-99.9,0.00,NNW,338,9.0,12.0,-999,0.00,,,-99.99,,2013-03-01 16:54:00,
2013-03-01 10:59:00,32.0,-99.9,0.00,NNW,347,11.0,13.0,-999,0.00,,,-99.99,,2013-03-01 16:59:00,
2013-03-01 11:04:00,32.0,-99.9,0.00,NNW,347,11.0,15.0,-999,0.00,,,-99.99,,2013-03-01 17:04:00,
2013-03-01 11:09:00,32.0,-99.9,0.00,NNW,341,10.0,13.0,-999,0.00,,,-99.99,,2013-03-01 17:09:00,
2013-03-01 11:14:00,32.0,-99.9,0.00,NW,323,10.0,14.0,-999,0.00,,,-99.99,,2013-03-01 17:14:00,
2013-03-01 11:19:00,32.0,-99.9,0.00,North,350,13.0,16.0,-999,0.00,,,-99.99,,2013-03-01 17:19:00,
2013-03-01 11:24:00,32.0,-99.9,0.00,NW,319,11.0,14.0,-999,0.00,,,-99.99,,2013-03-01 17:24:00,
2013-03-01 11:29:00,32.0,-99.9,0.00,NW,320,12.0,14.0,-999,0.00,,,-99.99,,2013-03-01 17:29:00,
2013-03-01 11:34:00,33.0,-99.9,0.00,NW,321,8.0,10.0,-999,0.00,,,-99.99,,2013-03-01 17:34:00,
2013-03-01 11:39:00,34.0,-99.9,0.00,NW,310,10.0,11.0,-999,0.00,,,-99.99,,2013-03-01 17:39:00,
2013-03-01 11:44:00,34.0,-99.9,0.00,NW,323,8.0,10.0,-999,0.00,,,-99.99,,2013-03-01 17:44:00,
2013-03-01 11:49:00,35.0,-99.9,0.00,NW,320,9.0,11.0,-999,0.00,,,-99.99,,2013-03-01 17:49:00,
2013-03-01 11:54:00,34.0,-99.9,0.00,NNW,347,11.0,14.0,-999,0.00,,,-99.99,,2013-03-01 17:54:00,
2013-03-01 11:59:00,34.0,-99.9,0.00,NW,320,11.0,13.0,-999,0.00,,,-99.99,,2013-03-01 17:59:00,
2013-03-01 12:04:00,35.0,-99.9,0.00,NW,317,10.0,11.0,-999,0.00,,,-99.99,,2013-03-01 18:04:00,
2013-03-01 12:09:00,34.0,-99.9,0.00,NW,323,8.0,9.0,-999,0.00,,,-99.99,,2013-03-01 18:09:00,
2013-03-01 12:19:00,34.0,-99.9,0.00,NNW,343,11.0,14.0,-999,0.00,,,-99.99,,2013-03-01 18:19:00,
2013-03-01 12:24:00,34.0,-99.9,0.00,NNW,343,12.0,14.0,-999,0.00,,,-99.99,,2013-03-01 18:24:00,
2013-03-01 12:29:00,34.0,-99.9,0.00,NNW,338,13.0,15.0,-999,0.00,,,-99.99,,2013-03-01 18:29:00,
2013-03-01 12:34:00,34.0,-99.9,0.00,NNW,343,12.0,15.0,-999,0.00,,,-99.99,,2013-03-01 18:34:00,
2013-03-01 12:39:00,34.0,-99.9,0.00,NNW,344,13.0,16.0,-999,0.00,,,-99.99,,2013-03-01 18:39:00,
2013-03-01 12:44:00,34.0,-99.9,0.00,NNW,345,13.0,15.0,-999,0.00,,,-99.99,,2013-03-01 18:44:00,
2013-03-01 12:49:00,34.0,-99.9,0.00,NNW,336,11.0,13.0,-999,0.00,,,-99.99,,2013-03-01 18:49:00,
2013-03-01 12:54:00,35.0,-99.9,0.00,NW,323,11.0,14.0,-999,0.00,,,-99.99,,2013-03-01 18:54:00,
2013-03-01 12:59:00,34.0,-99.9,0.00,NW,310,11.0,13.0,-999,0.00,,,-99.99,,2013-03-01 18:59:00,
2013-03-01 13:04:00,34.0,-99.9,0.00,NW,314,12.0,13.0,-999,0.00,,,-99.99,,2013-03-01 19:04:00,
2013-03-01 13:09:00,34.0,-99.9,0.00,NW,316,14.0,15.0,-999,0.00,,,-99.99,,2013-03-01 19:09:00,
2013-03-01 13:15:00,34.0,-99.9,0.00,NW,306,12.0,14.0,-999,0.00,,,-99.99,,2013-03-01 19:15:00,
2013-03-01 13:24:00,35.0,-99.9,0.00,NNW,337,11.0,14.0,-999,0.00,,,-99.99,,2013-03-01 19:24:00,
2013-03-01 13:29:00,35.0,-99.9,0.00,NNW,327,13.0,15.0,-999,0.00,,,-99.99,,2013-03-01 19:29:00,
2013-03-01 13:34:00,35.0,-99.9,0.00,NW,317,13.0,15.0,-999,0.00,,,-99.99,,2013-03-01 19:34:00,
2013-03-01 13:39:00,35.0,-99.9,0.00,NW,307,14.0,15.0,-999,0.00,,,-99.99,,2013-03-01 19:39:00,
2013-03-01 13:44:00,35.0,-99.9,0.00,NW,323,10.0,13.0,-999,0.00,,,-99.99,,2013-03-01 19:44:00,
2013-03-01 13:49:00,35.0,-99.9,0.00,NW,319,12.0,13.0,-999,0.00,,,-99.99,,2013-03-01 19:49:00,
2013-03-01 13:54:00,35.0,-99.9,0.00,NNW,343,9.0,12.0,-999,0.00,,,-99.99,,2013-03-01 19:54:00,
2013-03-01 13:59:00,35.0,-99.9,0.00,NNW,340,10.0,12.0,-999,0.00,,,-99.99,,2013-03-01 19:59:00,
2013-03-01 14:04:00,34.0,-99.9,0.00,NNW,340,13.0,14.0,-999,0.00,,,-99.99,,2013-03-01 20:04:00,
2013-03-01 14:09:00,35.0,-99.9,0.00,NNW,347,10.0,13.0,-999,0.00,,,-99.99,,2013-03-01 20:09:00,
2013-03-01 14:15:00,34.0,-99.9,0.00,NNW,345,11.0,13.0,-999,0.00,,,-99.99,,2013-03-01 20:15:00,
2013-03-01 14:24:00,35.0,-99.9,0.00,NNW,343,9.0,12.0,-999,0.00,,,-99.99,,2013-03-01 20:24:00,
2013-03-01 14:29:00,35.0,-99.9,0.00,NNW,345,10.0,12.0,-999,0.00,,,-99.99,,2013-03-01 20:29:00,
2013-03-01 14:34:00,35.0,-99.9,0.00,NNW,343,9.0,12.0,-999,0.00,,,-99.99,,2013-03-01 20:34:00,
2013-03-01 14:39:00,35.0,-99.9,0.00,North,351,9.0,11.0,-999,0.00,,,-99.99,,2013-03-01 20:39:00,
2013-03-01 14:44:00,35.0,-99.9,0.00,NNW,338,11.0,12.0,-999,0.00,,,-99.99,,2013-03-01 20:44:00,
2013-03-01 14:49:00,35.0,-99.9,0.00,NNW,344,11.0,12.0,-999,0.00,,,-99.99,,2013-03-01 20:49:00,
2013-03-01 14:54:00,35.0,-99.9,0.00,NNW,348,11.0,13.0,-999,0.00,,,-99.99,,2013-03-01 20:54:00,
2013-03-01 14:59:00,35.0,-99.9,0.00,NNW,343,12.0,14.0,-999,0.00,,,-99.99,,2013-03-01 20:59:00,
2013-03-01 15:04:00,35.0,-99.9,0.00,NNW,343,11.0,13.0,-999,0.00,,,-99.99,,2013-03-01 21:04:00,
2013-03-01 15:09:00,35.0,-99.9,0.00,NNW,345,11.0,15.0,-999,0.00,,,-99.99,,2013-03-01 21:09:00,
2013-03-01 15:19:00,35.0,-99.9,0.00,NW,319,10.0,12.0,-999,0.00,,,-99.99,,2013-03-01 21:19:00,
2013-03-01 15:24:00,36.0,-99.9,0.00,NNW,345,10.0,12.0,-999,0.00,,,-99.99,,2013-03-01 21:24:00,
2013-03-01 15:29:00,36.0,-99.9,0.00,NW,323,8.0,11.0,-999,0.00,,,-99.99,,2013-03-01 21:29:00,
2013-03-01 15:34:00,35.0,-99.9,0.00,NNW,343,8.0,10.0,-999,0.00,,,-99.99,,2013-03-01 21:34:00,
2013-03-01 15:39:00,36.0,-99.9,0.00,North,4,9.0,12.0,-999,0.00,,,-99.99,,2013-03-01 21:39:00,
2013-03-01 15:44:00,35.0,-99.9,0.00,North,3,9.0,12.0,-999,0.00,,,-99.99,,2013-03-01 21:44:00,
2013-03-01 15:49:00,35.0,-99.9,0.00,NNW,345,10.0,12.0,-999,0.00,,,-99.99,,2013-03-01 21:49:00,
2013-03-01 15:54:00,35.0,-99.9,0.00,North,7,10.0,13.0,-999,0.00,,,-99.99,,2013-03-01 21:54:00,
2013-03-01 16:04:00,35.0,-99.9,0.00,NNW,347,9.0,11.0,-999,0.00,,,-99.99,,2013-03-01 22:04:00,
2013-03-01 16:09:00,35.0,-99.9,0.00,North,1,9.0,11.0,-999,0.00,,,-99.99,,2013-03-01 22:09:00,
2013-03-01 16:14:00,36.0,-99.9,0.00,North,8,11.0,12.0,-999,0.00,,,-99.99,,2013-03-01 22:14:00,
2013-03-01 16:19:00,35.0,-99.9,0.00,NNW,343,8.0,10.0,-999,0.00,,,-99.99,,2013-03-01 22:19:00,
2013-03-01 16:24:00,35.0,-99.9,0.00,North,350,8.0,9.0,-999,0.00,,,-99.99,,2013-03-01 22:24:00,
2013-03-01 16:29:00,35.0,-99.9,0.00,NNW,340,7.0,10.0,-999,0.00,,,-99.99,,2013-03-01 22:29:00,
2013-03-01 16:34:00,36.0,-99.9,0.00,North,357,7.0,8.0,-999,0.00,,,-99.99,,2013-03-01 22:34:00,
2013-03-01 16:39:00,36.0,-99.9,0.00,NNW,340,7.0,8.0,-999,0.00,,,-99.99,,2013-03-01 22:39:00,
2013-03-01 16:44:00,36.0,-99.9,0.00,NNW,345,8.0,9.0,-999,0.00,,,-99.99,,2013-03-01 22:44:00,
2013-03-01 16:49:00,35.0,-99.9,0.00,NNW,343,9.0,10.0,-999,0.00,,,-99.99,,2013-03-01 22:49:00,
2013-03-01 16:54:00,35.0,-99.9,0.00,North,10,8.0,10.0,-999,0.00,,,-99.99,,2013-03-01 22:54:00,
2013-03-01 16:59:00,35.0,-99.9,0.00,North,10,7.0,8.0,-999,0.00,,,-99.99,,2013-03-01 22:59:00,
2013-03-01 17:04:00,35.0,-99.9,0.00,North,6,8.0,12.0,-999,0.00,,,-99.99,,2013-03-01 23:04:00,
2013-03-01 17:09:00,35.0,-99.9,0.00,North,6,8.0,10.0,-999,0.00,,,-99.99,,2013-03-01 23:09:00,
2013-03-01 17:15:00,35.0,-99.9,0.00,North,353,9.0,11.0,-999,0.00,,,-99.99,,2013-03-01 23:15:00,
2013-03-01 17:24:00,35.0,-99.9,0.00,North,354,7.0,9.0,-999,0.00,,,-99.99,,2013-03-01 23:24:00,
2013-03-01 17:29:00,35.0,-99.9,0.00,NNW,344,8.0,9.0,-999,0.00,,,-99.99,,2013-03-01 23:29:00,
2013-03-01 17:34:00,35.0,-99.9,0.00,NNW,337,8.0,9.0,-999,0.00,,,-99.99,,2013-03-01 23:34:00,
2013-03-01 17:39:00,34.0,-99.9,0.00,NW,326,8.0,10.0,-999,0.00,,,-99.99,,2013-03-01 23:39:00,
2013-03-01 17:44:00,34.0,-99.9,0.00,NNW,337,8.0,9.0,-999,0.00,,,-99.99,,2013-03-01 23:44:00,
2013-03-01 17:49:00,34.0,-99.9,0.00,NW,326,7.0,9.0,-999,0.00,,,-99.99,,2013-03-01 23:49:00,
2013-03-01 17:54:00,34.0,-99.9,0.00,NNW,343,8.0,9.0,-999,0.00,,,-99.99,,2013-03-01 23:54:00,
2013-03-01 17:59:00,34.0,-99.9,0.00,NNW,334,7.0,9.0,-999,0.00,,,-99.99,,2013-03-01 23:59:00,
2013-03-01 18:04:00,33.0,-99.9,0.00,NNW,337,7.0,8.0,-999,0.00,,,-99.99,,2013-03-02 00:04:00,
2013-03-01 18:09:00,33.0,-99.9,0.00,NNW,336,6.0,7.0,-999,0.00,,,-99.99,,2013-03-02 00:09:00,
2013-03-01 18:14:00,33.0,-99.9,0.00,NNW,333,4.0,5.0,-999,0.00,,,-99.99,,2013-03-02 00:14:00,
2013-03-01 18:19:00,32.0,-99.9,0.00,North,354,5.0,5.0,-999,0.00,,,-99.99,,2013-03-02 00:19:00,
2013-03-01 18:24:00,32.0,-99.9,0.00,North,354,5.0,6.0,-999,0.00,,,-99.99,,2013-03-02 00:24:00,
2013-03-01 18:29:00,32.0,-99.9,0.00,NNW,337,5.0,5.0,-999,0.00,,,-99.99,,2013-03-02 00:29:00,
2013-03-01 18:34:00,31.0,-99.9,0.00,NNW,333,6.0,6.0,-999,0.00,,,-99.99,,2013-03-02 00:34:00,
2013-03-01 18:39:00,31.0,-99.9,0.00,NNW,336,6.0,6.0,-999,0.00,,,-99.99,,2013-03-02 00:39:00,
2013-03-01 18:44:00,31.0,-99.9,0.00,NNW,333,5.0,6.0,-999,0.00,,,-99.99,,2013-03-02 00:44:00,
2013-03-01 18:49:00,31.0,-99.9,0.00,NNW,336,5.0,5.0,-999,0.00,,,-99.99,,2013-03-02 00:49:00,
2013-03-01 18:54:00,31.0,-99.9,0.00,NNW,333,4.0,4.0,-999,0.00,,,-99.99,,2013-03-02 00:54:00,
2013-03-01 18:59:00,31.0,-99.9,0.00,North,0,0.0,0.0,-999,0.00,,,-99.99,,2013-03-02 00:59:00,
2013-03-01 19:04:00,31.0,-99.9,0.00,North,0,0.0,0.0,-999,0.00,,,-99.99,,2013-03-02 01:04:00,
2013-03-01 19:09:00,31.0,-99.9,0.00,North,0,0.0,0.0,-999,0.00,,,-99.99,,2013-03-02 01:09:00,
2013-03-01 19:14:00,31.0,-99.9,0.00,North,0,0.0,0.0,-999,0.00,,,-99.99,,2013-03-02 01:14:00,
2013-03-01 19:19:00,31.0,-99.9,0.00,North,0,0.0,0.0,-999,0.00,,,-99.99,,2013-03-02 01:19:00,
2013-03-01 19:24:00,31.0,-99.9,0.00,North,0,0.0,0.0,-999,0.00,,,-99.99,,2013-03-02 01:24:00,
2013-03-01 19:29:00,31.0,-99.9,0.00,North,0,0.0,0.0,-999,0.00,,,-99.99,,2013-03-02 01:29:00,
2013-03-01 19:34:00,31.0,-99.9,0.00,North,0,0.0,0.0,-999,0.00,,,-99.99,,2013-03-02 01:34:00,
2013-03-01 19:39:00,30.0,-99.9,0.00,North,0,0.0,0.0,-999,0.00,,,-99.99,,2013-03-02 01:39:00,
2013-03-01 19:44:00,30.0,-99.9,0.00,North,0,0.0,0.0,-999,0.00,,,-99.99,,2013-03-02 01:44:00,
2013-03-01 19:49:00,30.0,-99.9,0.00,North,0,0.0,0.0,-999,0.00,,,-99.99,,2013-03-02 01:49:00,
2013-03-01 19:54:00,29.0,-99.9,0.00,North,0,0.0,0.0,-999,0.00,,,-99.99,,2013-03-02 01:54:00,
2013-03-01 19:59:00,29.0,-99.9,0.00,North,0,0.0,0.0,-999,0.00,,,-99.99,,2013-03-02 01:59:00,
2013-03-01 20:04:00,29.0,-99.9,0.00,North,0,0.0,0.0,-999,0.00,,,-99.99,,2013-03-02 02:04:00,
2013-03-01 20:09:00,29.0,-99.9,0.00,North,0,0.0,0.0,-999,0.00,,,-99.99,,2013-03-02 02:09:00,
2013-03-01 20:14:00,29.0,-99.9,0.00,North,0,0.0,0.0,-999,0.00,,,-99.99,,2013-03-02 02:14:00,
2013-03-01 20:19:00,29.0,-99.9,0.00,North,0,0.0,0.0,-999,0.00,,,-99.99,,2013-03-02 02:19:00,
2013-03-01 20:25:00,30.0,-99.9,0.00,North,0,0.0,0.0,-999,0.00,,,-99.99,,2013-03-02 02:25:00,
2013-03-01 20:34:00,30.0,-99.9,0.00,North,0,0.0,0.0,-999,0.00,,,-99.99,,2013-03-02 02:34:00,
2013-03-01 20:39:00,29.0,-99.9,0.00,North,0,0.0,0.0,-999,0.00,,,-99.99,,2013-03-02 02:39:00,
2013-03-01 20:45:00,29.0,-99.9,0.00,North,0,0.0,0.0,-999,0.00,,,-99.99,,2013-03-02 02:45:00,
2013-03-01 20:54:00,28.0,-99.9,0.00,North,0,0.0,0.0,-999,0.00,,,-99.99,,2013-03-02 02:54:00,
2013-03-01 20:59:00,28.0,-99.9,0.00,North,0,0.0,0.0,-999,0.00,,,-99.99,,2013-03-02 02:59:00,
2013-03-01 21:04:00,27.0,-99.9,0.00,North,0,0.0,0.0,-999,0.00,,,-99.99,,2013-03-02 03:04:00,
2013-03-01 21:09:00,28.0,-99.9,0.00,North,0,0.0,0.0,-999,0.00,,,-99.99,,2013-03-02 03:09:00,
2013-03-01 21:14:00,27.0,-99.9,0.00,North,0,0.0,0.0,-999,0.00,,,-99.99,,2013-03-02 03:14:00,
2013-03-01 21:20:00,27.0,-99.9,0.00,North,0,0.0,0.0,-999,0.00,,,-99.99,,2013-03-02 03:20:00,
2013-03-01 21:29:00,26.0,-99.9,0.00,North,0,0.0,0.0,-999,0.00,,,-99.99,,2013-03-02 03:29:00,
2013-03-01 21:34:00,27.0,-99.9,0.00,North,0,0.0,0.0,-999,0.00,,,-99.99,,2013-03-02 03:34:00,
2013-03-01 21:39:00,28.0,-99.9,0.00,North,0,0.0,0.0,-999,0.00,,,-99.99,,2013-03-02 03:39:00,
2013-03-01 21:44:00,28.0,-99.9,0.00,North,0,0.0,0.0,-999,0.00,,,-99.99,,2013-03-02 03:44:00,
2013-03-01 21:49:00,28.0,-99.9,0.00,North,0,0.0,0.0,-999,0.00,,,-99.99,,2013-03-02 03:49:00,
2013-03-01 21:54:00,28.0,-99.9,0.00,North,0,0.0,0.0,-999,0.00,,,-99.99,,2013-03-02 03:54:00,
2013-03-01 21:59:00,28.0,-99.9,0.00,North,0,0.0,0.0,-999,0.00,,,-99.99,,2013-03-02 03:59:00,
2013-03-01 22:09:00,25.0,-99.9,0.00,North,0,0.0,0.0,-999,0.00,,,-99.99,,2013-03-02 04:09:00,
2013-03-01 22:15:00,25.0,-99.9,0.00,North,0,0.0,0.0,-999,0.00,,,-99.99,,2013-03-02 04:15:00,
2013-03-01 22:24:00,24.0,-99.9,0.00,WSW,241,7.0,7.0,-999,0.00,,,-99.99,,2013-03-02 04:24:00,
2013-03-01 22:29:00,25.0,-99.9,0.00,WSW,238,5.0,5.0,-999,0.00,,,-99.99,,2013-03-02 04:29:00,
2013-03-01 22:34:00,26.0,-99.9,0.00,WSW,237,5.0,5.0,-999,0.00,,,-99.99,,2013-03-02 04:34:00,
2013-03-01 22:39:00,27.0,-99.9,0.00,North,0,0.0,0.0,-999,0.00,,,-99.99,,2013-03-02 04:39:00,
2013-03-01 22:44:00,27.0,-99.9,0.00,North,0,0.0,0.0,-999,0.00,,,-99.99,,2013-03-02 04:44:00,
2013-03-01 22:49:00,28.0,-99.9,0.00,North,0,0.0,0.0,-999,0.00,,,-99.99,,2013-03-02 04:49:00,
2013-03-01 22:54:00,29.0,-99.9,0.00,North,0,0.0,0.0,-999,0.00,,,-99.99,,2013-03-02 04:54:00,
2013-03-01 22:59:00,28.0,-99.9,0.00,North,0,0.0,0.0,-999,0.00,,,-99.99,,2013-03-02 04:59:00,
2013-03-01 23:04:00,27.0,-99.9,0.00,North,0,0.0,0.0,-999,0.00,,,-99.99,,2013-03-02 05:04:00,
2013-03-01 23:10:00,28.0,-99.9,0.00,North,0,0.0,0.0,-999,0.00,,,-99.99,,2013-03-02 05:10:00,
2013-03-01 23:15:00,27.0,-99.9,0.00,North,0,0.0,0.0,-999,0.00,,,-99.99,,2013-03-02 05:15:00,
2013-03-01 23:24:00,26.0,-99.9,0.00,North,0,0.0,0.0,-999,0.00,,,-99.99,,2013-03-02 05:24:00,
2013-03-01 23:29:00,27.0,-99.9,0.00,North,0,0.0,0.0,-999,0.00,,,-99.99,,2013-03-02 05:29:00,
2013-03-01 23:34:00,28.0,-99.9,0.00,North,0,0.0,0.0,-999,0.00,,,-99.99,,2013-03-02 05:34:00,
2013-03-01 23:39:00,28.0,-99.9,0.00,North,0,0.0,0.0,-999,0.00,,,-99.99,,2013-03-02 05:39:00,
2013-03-01 23:44:00,26.0,-99.9,0.00,North,0,0.0,0.0,-999,0.00,,,-99.99,,2013-03-02 05:44:00,
2013-03-01 23:49:00,25.0,-99.9,0.00,North,0,0.0,0.0,-999,0.00,,,-99.99,,2013-03-02 05:49:00,
2013-03-01 23:54:00,27.0,-99.9,0.00,North,0,0.0,0.0,-999,0.00,,,-99.99,,2013-03-02 05:54:00,
2013-03-01 23:59:00,27.0,-99.9,0.00,North,0,0.0,0.0,-999,0.00,,,-99.99,,2013-03-02 05:59:00,